User: anonymous   Login
Location: Churchill
(58.7670°N, 94.1670°W)
Time: 03:27:27
(UTC-05:00)
Language:

Cosmos 2142 Rocket - Orbit

View from above orbital plane
View from above orbital plane
View from above satellite
View from above satellite

Ground track
Ground track

The orbit data is extracted from the following two-line orbital elements,

1 21231U 91029B   15149.55231291  .00000029  00000-0  14361-4 0  9998
2 21231 082.9509 303.9150 0035702 161.9889 264.4294 13.75680069210711
Epoch (UTC): 29 May 2015 13:15:19
Eccentricity: 0.0035702
inclination: 82.9509°
perigee height: 953 km
apogee height: 1005 km
right ascension of ascending node: 303.9150°
argument of perigee: 161.9889°
revolutions per day: 13.75680069
mean anomaly at epoch: 264.4294°
orbit number at epoch: 21071

The dashed part of the orbit path shows where the satellite is in the earth's shadow,  

DLR